Regional Weather Roundup
Issued by NWS Northern Indiana

Home | Current Version | Previous Version | Graphics & Text | Print | Product List | Glossary On
Versions: 1 2 3 4 5 6 7 8 9 10 11 12 13 14 15 16 17 18 19 20 21 22 23 24 25 26 27 28 29 30 31 32 33 34 35 36 37 38 39 40 41 42 43 44 45 46 47 48 49 50
000
ASUS43 KIWX 301210
RWRIWX

KIWX WEATHER ROUNDUP
NATIONAL WEATHER SERVICE NORTHERN INDIANA
800 AM EDT TUE AUG 30 2016

NOTE: "FAIR" INDICATES FEW OR NO CLOUDS BELOW 12,000 FEET WITH NO
SIGNIFICANT WEATHER AND/OR OBSTRUCTIONS TO VISIBILITY.

* THESE STATIONS ARE NOT UNDER NWS QUALITY CONTROL. THEY ALSO MAY NOT
  REPORT WEATHER SUCH AS PRECIPITATION OR FOG.

INZ001>027-301300-
NORTHERN INDIANA

CITY           SKY/WX    TMP DP  RH WIND       PRES   REMARKS
GARY*          CLOUDY    73  73 100 CALM      30.16R FOG
VALPARAISO     FAIR      69  67  93 E3        30.17R
6HR MIN TEMP:  67; 6HR MAX TEMP:  73;

MICHIGAN CITY* FAIR      70  70 100 MISG      30.17F
LAPORTE*       MOCLDY   N/A N/A N/A E5        30.19R HAZE
KNOX*          FAIR      68  57  68 CALM      30.17S
SOUTH BEND     MOCLDY    71  67  87 E7        30.18F
6HR MIN TEMP:  70; 6HR MAX TEMP:  75;

ELKHART*       MOCLDY   N/A N/A N/A CALM      30.18R
GOSHEN         FAIR      68  64  87 CALM      30.19R
6HR MIN TEMP:  66; 6HR MAX TEMP:  73;

MONTICELLO*    FAIR      71  66  85 CALM      30.16S
6HR MIN TEMP:  70; 6HR MAX TEMP:  73;

ROCHESTER*     FAIR      72  70  94 CALM      30.18S
WARSAW*        FAIR      66  66 100 E3        30.19S
ANGOLA*        CLEAR     68  59  73 CALM      30.19S
FORT WAYNE     FAIR      67  63  87 CALM      30.20R
6HR MIN TEMP:  65; 6HR MAX TEMP:  69;

HUNTINGTON*    FAIR      65  64  96 CALM      30.19R
6HR MIN TEMP:  64; 6HR MAX TEMP:  69;

PERU/GRISSOM   PTCLDY    69  69 100 SE6       30.17R
MARION*        FAIR      67  67  97 CALM      30.19S FOG
6HR MIN TEMP:  51; 6HR MAX TEMP:  90;


$$
INZ028>050-301300-
CENTRAL INDIANA

CITY           SKY/WX    TMP DP  RH WIND       PRES   REMARKS
LAFAYETTE      FAIR      70  70 100 CALM      30.16R FOG
6HR MIN TEMP:  69; 6HR MAX TEMP:  73;

KOKOMO*        FAIR      68  66  94 SE5       30.18S
6HR MIN TEMP:  66; 6HR MAX TEMP:  70;

MUNCIE*        FAIR      70  67  90 CALM      30.19R
6HR MIN TEMP:  68; 6HR MAX TEMP:  72;

INDIANAPOLIS   FAIR      74  68  81 E5        30.17R
6HR MIN TEMP:  73; 6HR MAX TEMP:  78;


$$
MIZ043>046-050>051-056>058-064>065-071>073-077>080-301300-
SOUTHWEST LOWER MICHIGAN

CITY           SKY/WX    TMP DP  RH WIND       PRES   REMARKS
BATTLE CREEK   LGT RAIN  66  65  96 W7        30.20R
6HR MIN TEMP:  66; 6HR MAX TEMP:  69; 6HR PCP: TRACE;

BENTON HARBOR  CLOUDY    70  67  90 CALM      30.17R
6HR MIN TEMP:  69; 6HR MAX TEMP:  75; 6HR PCP:  1.37;

COLDWATER*     FAIR      69  63  83 CALM      30.19R
6HR MIN TEMP:  67; 6HR MAX TEMP:  69;

HILLSDALE*     FAIR      66  61  83 S3        30.20R
6HR MIN TEMP:  51; 6HR MAX TEMP:  84;

HOLLAND        MOCLDY    72  69  90 CALM      30.17R
6HR MIN TEMP:  70; 6HR MAX TEMP:  74;

GRAND RAPIDS   CLOUDY    72  68  87 W5        30.17R
6HR MIN TEMP:  69; 6HR MAX TEMP:  72;

KALAMAZOO      LGT RAIN  70  67  90 N8        30.19R FOG
6HR MIN TEMP:  69; 6HR MAX TEMP:  73; 6HR PCP:  0.08;

STURGIS*       MOCLDY    69  62  81 NW5       30.21R
6HR MIN TEMP:  68; 6HR MAX TEMP:  71;

THREE RIVERS*  HVY RAIN  70  68  92 S9        30.18S
6HR MIN TEMP:  69; 6HR MAX TEMP:  73;


$$
OHZ001>008-015>018-024>025-301300-
NORTHWEST OHIO

CITY           SKY/WX    TMP DP  RH WIND       PRES   REMARKS
WAUSEON*       FAIR      63  61  94 CALM      30.19S FOG
DEFIANCE       FAIR      65  62  90 CALM      30.19R
6HR MIN TEMP:  63; 6HR MAX TEMP:  68;

FINDLAY        FAIR      63  58  83 CALM      30.18R
6HR MIN TEMP:  58; 6HR MAX TEMP:  66;

TOLEDO EXPRESS FAIR      62  62 100 CALM      30.19R
6HR MIN TEMP:  60; 6HR MAX TEMP:  64;

TOLEDO METCALF FAIR      64  62  93 CALM      30.19S
6HR MIN TEMP:  60; 6HR MAX TEMP:  66;

LIMA           FAIR      65  62  90 SE3       30.19R
6HR MIN TEMP:  62; 6HR MAX TEMP:  66;


$$
AND FOR LAKE MICHIGAN COASTAL AND OPEN LAKE BUOY OBSERVATIONS

STATION/POSITION TEMP    WIND        PRES    VSBY  WAVE
                 AIR SEA DIR/SP/G                  HT/PER
                 (F)     (DEG/KT/KT) (MB)    (MI)  (FT/S)
CALUMET HARBOR    73     280/  1/  2 1020.3F
MICHIGAN CITY     72      30/  6/  7   N/A
BURNS HARBOR      72      80/  6/ 10 1021.7R
SAINT JOSEPH      69      30/  3/  6 1022.0S
SOUTH LAKE BUOY   75 76  130/  4/  6 1020.2R         0
4 MI NW BRIDGMAN  69 68  130/  8/ 12 1021.1S         1
MICHIGAN CITY     73 74  120/  8/ 10   N/A           1/ 2

$$
&&




USA.gov is the U.S. government's official web portal to all federal, state and local government web resources and services.